Location: F?ge?el
(45.8833°N, 22.5833°E)
Time: 06:06:57
(UTC+00:00)

YAOGAN 1 - Pass Details

Date: 17 November 2025
Orbit: 605 x 607 km, 97.8° (Epoch: 04 December)

Event Time Altitude Azimuth Distance (km) Brightness Sun altitude
Rises 16:27:27 0° 151° (SSE) 2,853 5.8 -15.8°
Reaches altitude 10° 16:29:39 10° 146° (SE) 1,953 4.9 -16.2°
Maximum altitude 16:33:45 48° 72° (ENE) 795 2.7 -16.9°
Drops below altitude 10° 16:37:51 10° 358° (N) 1,967 5.1 -17.6°
Sets 16:40:05 0° 353° (N) 2,875 6.0 -18.0°
